Tracking 19219 objects as of 19-Jul-2018
HD Live streaming from Space Station
objects crossing your sky now

RADUGA 4

Track RADUGA 4 now!
RADUGA 4 is classified as:


NORAD ID: 10987
Int'l Code: 1978-073A
Perigee: 35,720.8 km
Apogee: 35,822.1 km
Inclination: 11.5 °
Period: 1,435.0 minutes
Semi major axis: 42142 km
RCS: 1 m2 (large)
Launch date: July 18, 1978
Source: Commonwealth of Independent States (former USSR) (CIS)
Launch site: TYURATAM MISSILE AND SPACE COMPLEX (TTMTR)
aabbcc
Your satellite tracking list
Your tracking list is empty




NASA's NSSDC Master Catalog

Two Line Element Set (TLE):
1 10987U 78073A   18199.35466038 -.00000150 +00000-0 +00000-0 0  9990
2 10987 011.5181 314.4151 0012022 316.6178 229.6036 01.00351455090610
Source of the keplerian elements: AFSPC